Regional Weather Roundup
Issued by NWS

Home | Current Version | Previous Version | Text Only | Print | Product List | Glossary On
Versions: 1 2 3 4 5 6 7 8 9 10 11 12 13 14 15 16 17 18 19 20 21 22 23 24 25 26 27 28 29 30 31 32 33 34 35 36 37 38 39 40 41 42 43 44 45 46 47 48 49 50
000
ASUS43 KLSX 221357
RWRMO

WEATHER SUMMARY FOR MISSOURI
NATIONAL WEATHER SERVICE SPRINGFIELD MO
900 AM CDT TUE AUG 22 2017

NOTE: "FAIR" INDICATES FEW OR NO CLOUDS BELOW 12,000 FEET WITH NO
       SIGNIFICANT WEATHER AND/OR OBSTRUCTIONS TO VISIBILITY.
       CURRENT SKY AND/OR WEATHER CONDITIONS ARE NOT AVAILABLE FOR
       CHILLICOTHE AND FARMINGTON.

MOZ001>031-035>038-043-044-053-054-221500-
...NORTHERN AND WESTERN MISSOURI...

CITY           SKY/WX    TMP DP  RH WIND       PRES   REMARKS
KANSAS CTY INT CLOUDY    68  66  93 N5        30.09R
LEE`S SUMMIT   CLOUDY    68  68 100 MISG      30.09R
ST JOSEPH      MOSUNNY   69  67  93 N8        30.10R
CHILLICOTHE      N/A     70  67  90 VRB6      30.07R

$$
MOZ066>068-077>081-088>096-101>105-221500-
...SOUTHWEST MISSOURI...

CITY           SKY/WX    TMP DP  RH WIND       PRES   REMARKS
SPRINGFIELD    LGT RAIN  67  67 100 W10       30.10R
JOPLIN         RAIN      69  69 100 VRB5      30.10F FOG
BRANSON        LGT RAIN  66  66 100 SW3       30.13F FOG

$$
MOZ032>034-039>042-045>050-055>058-069>072-221500-
...CENTRAL MISSOURI...

CITY           SKY/WX    TMP DP  RH WIND       PRES   REMARKS
COLUMBIA       NOT AVBL
JEFFERSON CITY CLOUDY    72  72 100 W9        30.02R
ROLLA          LGT RAIN  69  69 100 S10       29.96F
SEDALIA        CLOUDY    69  69 100 W7        30.07R
WARRENSBURG    PTSUNNY   66  64  94 W5        30.07S

$$
MOZ051-052-059>065-221500-
...EAST CENTRAL MISSOURI...

CITY           SKY/WX    TMP DP  RH WIND       PRES   REMARKS
ST LOUIS INTL  LGT RAIN  71  71 100 SW3       29.98R
ST CHARLES     CLOUDY    72  72 100 CALM      29.97R

$$
MOZ072>076-082>087-097>100-106>115-221500-
...SOUTH CENTRAL AND SOUTHEAST MISSOURI...

CITY           SKY/WX    TMP DP  RH WIND       PRES   REMARKS
CAPE GIRARDEAU CLOUDY    80  74  81 SW12      29.99S
POPLAR BLUFF   PTSUNNY   78  76  93 SW7       30.00S
WEST PLAINS    CLOUDY    77  70  79 W12G21    30.04R

$$


USA.gov is the U.S. government's official web portal to all federal, state and local government web resources and services.